Time,TemperatureF,DewpointF,PressureIn,WindDirection,WindDirectionDegrees,WindSpeedMPH,WindSpeedGustMPH,Humidity,HourlyPrecipIn,Conditions,Clouds,dailyrainin,SoftwareType,DateUTC
2013-12-31 00:01:00,24.5,14.0,25.27,NW,307,4.0,6.0,65,0.00,,,0.00,weatherlink.com 1.10,2013-12-31 07:01:00,
2013-12-31 00:16:00,25.9,14.0,25.26,West,266,6.0,8.0,62,0.00,,,0.00,weatherlink.com 1.10,2013-12-31 07:16:00,
2013-12-31 00:31:00,25.3,14.0,25.25,West,273,2.0,4.0,62,0.00,,,0.00,weatherlink.com 1.10,2013-12-31 07:31:00,
2013-12-31 00:46:00,25.6,14.0,25.24,West,278,4.0,9.0,62,0.00,,,0.00,weatherlink.com 1.10,2013-12-31 07:46:00,
2013-12-31 01:01:00,25.5,14.0,25.24,West,259,2.0,3.0,62,0.00,,,0.00,weatherlink.com 1.10,2013-12-31 08:01:00,
2013-12-31 01:16:00,25.1,14.0,25.24,West,263,2.0,2.0,63,0.00,,,0.00,weatherlink.com 1.10,2013-12-31 08:16:00,
2013-12-31 01:31:00,24.2,14.0,25.23,SSW,211,0.0,2.0,65,0.00,,,0.00,weatherlink.com 1.10,2013-12-31 08:31:00,
2013-12-31 01:46:00,23.8,14.0,25.23,WSW,255,1.0,2.0,66,0.00,,,0.00,weatherlink.com 1.10,2013-12-31 08:46:00,
2013-12-31 02:01:00,24.6,14.0,25.23,West,266,1.0,3.0,65,0.00,,,0.00,weatherlink.com 1.10,2013-12-31 09:01:00,
2013-12-31 02:16:00,24.4,14.0,25.22,West,280,0.0,4.0,65,0.00,,,0.00,weatherlink.com 1.10,2013-12-31 09:16:00,
2013-12-31 02:31:00,24.0,14.0,25.22,WSW,243,4.0,5.0,66,0.00,,,0.00,weatherlink.com 1.10,2013-12-31 09:31:00,
2013-12-31 02:46:00,24.8,15.0,25.22,West,269,2.0,5.0,66,0.00,,,0.00,weatherlink.com 1.10,2013-12-31 09:46:00,
2013-12-31 03:01:00,-999.0,-99.9,25.22,North,-999,-999.0,-999.0,-999,0.00,,,0.00,weatherlink.com 1.10,2013-12-31 10:01:00,
2013-12-31 03:16:00,-999.0,-99.9,25.21,North,-999,-999.0,-999.0,-999,0.00,,,0.00,weatherlink.com 1.10,2013-12-31 10:16:00,
2013-12-31 03:32:00,-999.0,-99.9,25.21,North,-999,-999.0,-999.0,-999,0.00,,,0.00,weatherlink.com 1.10,2013-12-31 10:32:00,
2013-12-31 03:47:00,-999.0,-99.9,25.20,North,-999,-999.0,-999.0,-999,0.00,,,0.00,weatherlink.com 1.10,2013-12-31 10:47:00,
2013-12-31 04:02:00,-999.0,-99.9,25.20,North,-999,-999.0,-999.0,-999,0.00,,,0.00,weatherlink.com 1.10,2013-12-31 11:02:00,
2013-12-31 04:17:00,-999.0,-99.9,25.19,North,-999,-999.0,-999.0,-999,0.00,,,0.00,weatherlink.com 1.10,2013-12-31 11:17:00,
2013-12-31 04:32:00,-999.0,-99.9,25.18,North,-999,-999.0,-999.0,-999,0.00,,,0.00,weatherlink.com 1.10,2013-12-31 11:32:00,
2013-12-31 04:47:00,-999.0,-99.9,25.18,North,-999,-999.0,-999.0,-999,0.00,,,0.00,weatherlink.com 1.10,2013-12-31 11:47:00,
2013-12-31 05:02:00,-999.0,-99.9,25.17,North,-999,-999.0,-999.0,-999,0.00,,,0.00,weatherlink.com 1.10,2013-12-31 12:02:00,
2013-12-31 05:17:00,-999.0,-99.9,25.17,North,-999,-999.0,-999.0,-999,0.00,,,0.00,weatherlink.com 1.10,2013-12-31 12:17:00,
2013-12-31 05:32:00,-999.0,-99.9,25.17,North,-999,-999.0,-999.0,-999,0.00,,,0.00,weatherlink.com 1.10,2013-12-31 12:32:00,
2013-12-31 05:47:00,-999.0,-99.9,25.17,North,-999,-999.0,-999.0,-999,0.00,,,0.00,weatherlink.com 1.10,2013-12-31 12:47:00,
2013-12-31 06:02:00,-999.0,-99.9,25.17,North,-999,-999.0,-999.0,-999,0.00,,,0.00,weatherlink.com 1.10,2013-12-31 13:02:00,
2013-12-31 06:17:00,-999.0,-99.9,25.17,North,-999,-999.0,-999.0,-999,0.00,,,0.00,weatherlink.com 1.10,2013-12-31 13:17:00,
2013-12-31 06:32:00,-999.0,-99.9,25.17,North,-999,-999.0,-999.0,-999,0.00,,,0.00,weatherlink.com 1.10,2013-12-31 13:32:00,
2013-12-31 06:48:00,-999.0,-99.9,25.17,North,-999,-999.0,-999.0,-999,0.00,,,0.00,weatherlink.com 1.10,2013-12-31 13:48:00,
2013-12-31 07:03:00,-999.0,-99.9,25.18,North,-999,-999.0,-999.0,-999,0.00,,,0.00,weatherlink.com 1.10,2013-12-31 14:03:00,
2013-12-31 07:18:00,-999.0,-99.9,25.18,North,-999,-999.0,-999.0,-999,0.00,,,0.00,weatherlink.com 1.10,2013-12-31 14:18:00,
2013-12-31 07:33:00,-999.0,-99.9,25.18,North,-999,-999.0,-999.0,-999,0.00,,,0.00,weatherlink.com 1.10,2013-12-31 14:33:00,
2013-12-31 07:48:00,-999.0,-99.9,25.18,North,-999,-999.0,-999.0,-999,0.00,,,0.00,weatherlink.com 1.10,2013-12-31 14:48:00,
2013-12-31 08:03:00,34.5,25.0,25.19,West,267,3.0,8.0,68,0.00,,,0.00,weatherlink.com 1.10,2013-12-31 15:03:00,
2013-12-31 08:18:00,38.7,26.0,25.19,West,273,6.0,14.0,60,0.00,,,0.00,weatherlink.com 1.10,2013-12-31 15:18:00,
2013-12-31 08:33:00,39.9,26.0,25.20,NW,314,10.0,13.0,57,0.00,,,0.00,weatherlink.com 1.10,2013-12-31 15:33:00,
2013-12-31 08:48:00,41.4,26.0,25.20,WNW,295,10.0,14.0,54,0.00,,,0.00,weatherlink.com 1.10,2013-12-31 15:48:00,
2013-12-31 09:03:00,42.4,26.0,25.20,WNW,302,10.0,16.0,53,0.00,,,0.00,weatherlink.com 1.10,2013-12-31 16:03:00,
2013-12-31 09:18:00,43.7,26.0,25.20,WNW,284,12.0,17.0,50,0.00,,,0.00,weatherlink.com 1.10,2013-12-31 16:18:00,
2013-12-31 09:33:00,45.8,25.0,25.21,NNW,328,14.0,22.0,45,0.00,,,0.00,weatherlink.com 1.10,2013-12-31 16:33:00,
2013-12-31 09:48:00,47.1,25.0,25.22,NNW,330,7.0,23.0,43,0.00,,,0.00,weatherlink.com 1.10,2013-12-31 16:48:00,
2013-12-31 10:03:00,48.1,25.0,25.21,WNW,300,8.0,29.0,41,0.00,,,0.00,weatherlink.com 1.10,2013-12-31 17:03:00,
2013-12-31 10:18:00,48.9,25.0,25.21,NW,316,22.0,28.0,39,0.00,,,0.00,weatherlink.com 1.10,2013-12-31 17:18:00,
2013-12-31 10:33:00,49.1,24.0,25.21,NW,319,19.0,34.0,38,0.00,,,0.00,weatherlink.com 1.10,2013-12-31 17:33:00,
2013-12-31 10:49:00,49.8,24.0,25.20,NW,314,26.0,35.0,36,0.00,,,0.00,weatherlink.com 1.10,2013-12-31 17:49:00,
2013-12-31 11:04:00,49.7,24.0,25.21,NW,326,20.0,31.0,36,0.00,,,0.00,weatherlink.com 1.10,2013-12-31 18:04:00,
2013-12-31 11:19:00,48.8,23.0,25.21,NW,314,15.0,30.0,37,0.00,,,0.00,weatherlink.com 1.10,2013-12-31 18:19:00,
2013-12-31 11:34:00,49.9,24.0,25.20,NW,314,14.0,25.0,36,0.00,,,0.00,weatherlink.com 1.10,2013-12-31 18:34:00,
2013-12-31 11:49:00,50.7,24.0,25.20,NW,313,11.0,28.0,35,0.00,,,0.00,weatherlink.com 1.10,2013-12-31 18:49:00,
2013-12-31 12:04:00,50.3,23.0,25.19,NW,306,23.0,33.0,35,0.00,,,0.00,weatherlink.com 1.10,2013-12-31 19:04:00,
2013-12-31 12:19:00,51.0,23.0,25.18,North,349,15.0,32.0,34,0.00,,,0.00,weatherlink.com 1.10,2013-12-31 19:19:00,
2013-12-31 12:34:00,52.0,24.0,25.17,NW,326,14.0,33.0,33,0.00,,,0.00,weatherlink.com 1.10,2013-12-31 19:34:00,
2013-12-31 12:49:00,51.4,23.0,25.18,NNW,333,18.0,31.0,33,0.00,,,0.00,weatherlink.com 1.10,2013-12-31 19:49:00,
2013-12-31 13:04:00,51.3,24.0,25.18,NNW,338,23.0,32.0,34,0.00,,,0.00,weatherlink.com 1.10,2013-12-31 20:04:00,
2013-12-31 13:19:00,51.3,24.0,25.18,WNW,285,28.0,30.0,34,0.00,,,0.00,weatherlink.com 1.10,2013-12-31 20:19:00,
2013-12-31 13:34:00,51.0,24.0,25.18,NNW,332,16.0,27.0,35,0.00,,,0.00,weatherlink.com 1.10,2013-12-31 20:34:00,
2013-12-31 13:49:00,51.3,24.0,25.18,West,274,13.0,31.0,34,0.00,,,0.00,weatherlink.com 1.10,2013-12-31 20:49:00,
2013-12-31 14:04:00,50.5,24.0,25.18,NNW,335,15.0,31.0,35,0.00,,,0.00,weatherlink.com 1.10,2013-12-31 21:04:00,
2013-12-31 14:19:00,49.2,24.0,25.18,NW,323,11.0,30.0,37,0.00,,,0.00,weatherlink.com 1.10,2013-12-31 21:19:00,
2013-12-31 14:34:00,50.3,23.0,25.18,NW,316,11.0,30.0,35,0.00,,,0.00,weatherlink.com 1.10,2013-12-31 21:34:00,
2013-12-31 14:49:00,50.5,24.0,25.18,NW,315,18.0,31.0,35,0.00,,,0.00,weatherlink.com 1.10,2013-12-31 21:49:00,
2013-12-31 15:04:00,50.3,23.0,25.19,WNW,293,13.0,27.0,35,0.00,,,0.00,weatherlink.com 1.10,2013-12-31 22:04:00,
2013-12-31 15:19:00,49.3,23.0,25.19,NW,311,15.0,27.0,36,0.00,,,0.00,weatherlink.com 1.10,2013-12-31 22:19:00,
2013-12-31 15:34:00,48.4,24.0,25.19,WNW,299,8.0,21.0,38,0.00,,,0.00,weatherlink.com 1.10,2013-12-31 22:34:00,
2013-12-31 15:49:00,47.5,23.0,25.19,WNW,300,6.0,17.0,39,0.00,,,0.00,weatherlink.com 1.10,2013-12-31 22:49:00,
2013-12-31 16:04:00,47.1,24.0,25.18,NW,311,9.0,16.0,40,0.00,,,0.00,weatherlink.com 1.10,2013-12-31 23:04:00,
2013-12-31 16:19:00,46.9,23.0,25.18,NW,308,7.0,25.0,39,0.00,,,0.00,weatherlink.com 1.10,2013-12-31 23:19:00,
2013-12-31 16:34:00,45.5,23.0,25.17,WNW,282,4.0,16.0,41,0.00,,,0.00,weatherlink.com 1.10,2013-12-31 23:34:00,
2013-12-31 16:49:00,44.1,23.0,25.17,NW,307,7.0,14.0,44,0.00,,,0.00,weatherlink.com 1.10,2013-12-31 23:49:00,
2013-12-31 17:04:00,43.3,23.0,25.17,WNW,283,10.0,12.0,45,0.00,,,0.00,weatherlink.com 1.10,2014-01-01 00:04:00,
2013-12-31 17:20:00,43.7,23.0,25.17,WSW,257,6.0,10.0,44,0.00,,,0.00,weatherlink.com 1.10,2014-01-01 00:20:00,
2013-12-31 17:34:00,42.9,23.0,25.16,WSW,238,6.0,7.0,45,0.00,,,0.00,weatherlink.com 1.10,2014-01-01 00:34:00,
2013-12-31 17:49:00,41.9,23.0,25.16,WNW,299,2.0,8.0,47,0.00,,,0.00,weatherlink.com 1.10,2014-01-01 00:49:00,
2013-12-31 18:04:00,41.1,23.0,25.16,WSW,240,4.0,4.0,48,0.00,,,0.00,weatherlink.com 1.10,2014-01-01 01:04:00,
2013-12-31 18:19:00,41.3,23.0,25.15,WSW,243,10.0,14.0,48,0.00,,,0.00,weatherlink.com 1.10,2014-01-01 01:19:00,
2013-12-31 18:34:00,43.2,23.0,25.15,WSW,243,14.0,20.0,45,0.00,,,0.00,weatherlink.com 1.10,2014-01-01 01:34:00,
2013-12-31 18:49:00,43.8,23.0,25.15,West,271,13.0,20.0,44,0.00,,,0.00,weatherlink.com 1.10,2014-01-01 01:49:00,
2013-12-31 19:04:00,44.6,23.0,25.16,West,278,10.0,25.0,43,0.00,,,0.00,weatherlink.com 1.10,2014-01-01 02:04:00,
2013-12-31 19:19:00,44.4,23.0,25.16,West,267,7.0,14.0,43,0.00,,,0.00,weatherlink.com 1.10,2014-01-01 02:19:00,
2013-12-31 19:34:00,45.0,24.0,25.15,NW,307,12.0,18.0,43,0.00,,,0.00,weatherlink.com 1.10,2014-01-01 02:34:00,
2013-12-31 19:49:00,46.3,24.0,25.14,West,266,15.0,25.0,41,0.00,,,0.00,weatherlink.com 1.10,2014-01-01 02:49:00,
2013-12-31 20:04:00,46.1,23.0,25.14,West,280,7.0,18.0,41,0.00,,,0.00,weatherlink.com 1.10,2014-01-01 03:04:00,
2013-12-31 20:19:00,45.3,24.0,25.15,West,274,11.0,15.0,43,0.00,,,0.00,weatherlink.com 1.10,2014-01-01 03:19:00,
2013-12-31 20:34:00,45.4,24.0,25.15,WSW,245,12.0,17.0,43,0.00,,,0.00,weatherlink.com 1.10,2014-01-01 03:34:00,
2013-12-31 20:49:00,45.0,24.0,25.15,West,273,7.0,13.0,43,0.00,,,0.00,weatherlink.com 1.10,2014-01-01 03:49:00,
2013-12-31 21:04:00,45.2,24.0,25.14,WNW,285,7.0,16.0,43,0.00,,,0.00,weatherlink.com 1.10,2014-01-01 04:04:00,
2013-12-31 21:19:00,44.9,23.0,25.15,WNW,295,8.0,13.0,43,0.00,,,0.00,weatherlink.com 1.10,2014-01-01 04:19:00,
2013-12-31 21:34:00,44.2,24.0,25.15,WNW,293,5.0,10.0,45,0.00,,,0.00,weatherlink.com 1.10,2014-01-01 04:34:00,
2013-12-31 21:49:00,43.3,24.0,25.15,West,271,3.0,8.0,46,0.00,,,0.00,weatherlink.com 1.10,2014-01-01 04:49:00,
2013-12-31 22:04:00,42.4,24.0,25.15,WNW,293,2.0,6.0,48,0.00,,,0.00,weatherlink.com 1.10,2014-01-01 05:04:00,
2013-12-31 22:19:00,41.7,24.0,25.15,WNW,299,6.0,7.0,49,0.00,,,0.00,weatherlink.com 1.10,2014-01-01 05:19:00,
2013-12-31 22:34:00,41.1,24.0,25.15,NW,326,4.0,6.0,51,0.00,,,0.00,weatherlink.com 1.10,2014-01-01 05:34:00,
2013-12-31 22:49:00,39.9,24.0,25.15,WNW,297,2.0,6.0,53,0.00,,,0.00,weatherlink.com 1.10,2014-01-01 05:49:00,
2013-12-31 23:04:00,40.3,24.0,25.14,WNW,290,4.0,7.0,53,0.00,,,0.00,weatherlink.com 1.10,2014-01-01 06:04:00,
2013-12-31 23:19:00,41.1,24.0,25.14,West,281,4.0,7.0,52,0.00,,,0.00,weatherlink.com 1.10,2014-01-01 06:19:00,
2013-12-31 23:34:00,41.5,24.0,25.15,NW,311,2.0,9.0,51,0.00,,,0.00,weatherlink.com 1.10,2014-01-01 06:34:00,
2013-12-31 23:49:00,42.4,25.0,25.16,NW,323,9.0,18.0,50,0.00,,,0.00,weatherlink.com 1.10,2014-01-01 06:49:00,